FLOCK 4BE-17 (60492 NORAD) Tracking and Keplerian Element Data

This shows tracking and keplerian element data for the satellite.

Feedback or suggestion? Click here.




ElementValue
Catalog60492
NameFLOCK 4BE-17
Epoch Orbit864
Epoch Day286.76936423
Epoch Year2024
RAAN1.4573
Inclination97.4408
Eccentricity0.000352
Argument of Perigee270.4584
Mean Anonmoly89.6247
Mean Motion15.19475466
Decay Rate0.00019398
L11 60492U 24149AA 24286.76936423 .00019398 00000+0 91579-3 0 9996
L22 60492 97.4408 1.4573 0003520 270.4584 89.6247 15.19475466 8647



Live tracking and technical data element details for FLOCK 4BE-17 (NORAD 60492). FLOCK 4BE-17 can be tracked NOW for your location showing map with azimuth and elevation plus other details from your city location.







IsCatalogInMostPopularTable: catalog: 60492, numindb: 5
Update: records affected: 1



GetName: 60492 FLOCK 4BE-17

Hit Count: updated at: Tue, 03 Dec 2024 03:21:13 GMT